Home > Weather > Onex > Past weeks

Flag for Switzerland Weather for the Past 2 Weeks in Onex, Geneva, Switzerland

Now
57 °F

Passing clouds.


Feels Like: 55 °F
Forecast: 43 / 71 °F
Wind: 12 mph from Northeast

Location: Geneva Cointrin Airport

Current Time: May 5, 2016 at 1:14:30 PM

Latest Report: May 5, 2016 at 12:50 PM


Visibility: N/A

Pressure: 30.07 "Hg

Humidity: 41%

Dew Point: 34 °F

Location of OnexLocation

Historic Weather in Onex — Graph

°F

Onex Temperature Yesterday

Maximum temperature yesterday: 61 °F (at 3:50 PM)
Minimum temperature yesterday: 39 °F (at 6:20 AM)
Average temperature yesterday: 52 °F

High & Low Weather Summary for the Past Weeks

 TemperatureHumidityPressure
High68 °F (Apr 21, 3:50 PM)94% (Apr 22, 10:50 PM)30.30 "Hg (Apr 22, 10:50 PM)
Low32 °F (Apr 28, 2:50 AM)26% (Apr 28, 3:20 PM)29.74 "Hg (Apr 26, 6:20 PM)
Average49 °F65%30.03 "Hg
* Reported Apr 20 11:20 AM — May 5 11:50 AM, Onex, Weather by CustomWeather, © 2016

Note: Actual official high and low records may vary slightly from our data, if they occured in-between our weather recording intervals... More about our weather records

Advertising

Onex Weather History for the Previous 24 Hours

Scroll right to see more
 ConditionsComfort  
Time TempWeatherWind HumidityBarometerVisibility
11:50 AM
Thu, May 5
55 °FSunny.10 mph44%30.09 "Hg10 mi
11:20 AM54 °FPassing clouds.9 mph47%30.09 "HgN/A
10:50 AM54 °FPassing clouds.12 mph51%30.09 "HgN/A
10:20 AM52 °FSunny.14 mph50%30.09 "Hg10 mi
9:50 AM50 °FPassing clouds.13 mph54%30.09 "HgN/A
9:20 AM50 °FSunny.12 mph58%30.09 "Hg10 mi
8:50 AM48 °FSunny.13 mph62%30.12 "Hg10 mi
8:20 AM48 °FSunny.2 mph62%30.12 "Hg10 mi
7:50 AM43 °FSunny.2 mph76%30.12 "Hg10 mi
7:20 AM39 °FSunny.2 mph81%30.12 "Hg10 mi
6:50 AM37 °FClear.3 mph87%30.12 "Hg10 mi
6:20 AM37 °FClear.1 mph87%30.12 "Hg10 mi
5:50 AM37 °FClear.2 mph87%30.15 "Hg10 mi
5:20 AM39 °FClear.2 mph81%30.15 "Hg10 mi
4:50 AM39 °FClear.2 mph81%30.15 "Hg10 mi
4:20 AM39 °FClear.2 mph81%30.15 "Hg10 mi
3:50 AM39 °FClear.2 mph81%30.15 "Hg10 mi
2:50 AM39 °FClear.1 mph81%30.15 "Hg10 mi
2:20 AM41 °FClear.2 mph70%30.15 "Hg10 mi
1:50 AM43 °FClear.1 mph76%30.15 "Hg10 mi
1:20 AM43 °FClear.2 mph71%30.18 "Hg10 mi
12:50 AM45 °FClear.2 mph66%30.18 "Hg10 mi
12:20 AM46 °FClear.2 mph62%30.18 "Hg10 mi
11:50 PM
Wed, May 4
48 °FClear.2 mph54%30.18 "Hg10 mi
11:20 PM50 °FClear.5 mph50%30.18 "Hg10 mi
10:50 PM50 °FClear.6 mph47%30.18 "Hg10 mi
10:20 PM54 °FClear.7 mph41%30.18 "Hg10 mi
9:50 PM54 °FClear.8 mph41%30.18 "Hg10 mi
9:20 PM54 °FSunny.9 mph41%30.15 "Hg10 mi
8:50 PM55 °FSunny.9 mph41%30.15 "Hg10 mi
8:20 PM57 °FSunny.12 mph36%30.18 "Hg10 mi
7:50 PM59 °FSunny.14 mph34%30.18 "Hg10 mi
7:20 PM59 °FSunny.12 mph36%30.18 "Hg10 mi
6:50 PM61 °FSunny.14 mph34%30.18 "Hg10 mi
6:20 PM61 °FSunny.15 mph34%30.18 "Hg10 mi
5:50 PM61 °FSunny.16 mph34%30.18 "Hg10 mi
5:20 PM61 °FSunny.16 mph34%30.18 "Hg10 mi
4:50 PM61 °FSunny.16 mph36%30.21 "Hg10 mi
4:20 PM61 °FSunny.18 mph39%30.21 "Hg10 mi
3:50 PM61 °FSunny.18 mph39%30.21 "Hg10 mi
3:20 PM59 °FPassing clouds.18 mph42%30.21 "HgN/A
2:50 PM59 °FSunny.17 mph42%30.24 "Hg10 mi
2:20 PM59 °FSunny.17 mph42%30.24 "Hg10 mi
1:50 PM59 °FPassing clouds.18 mph48%30.24 "HgN/A
1:20 PM57 °FPassing clouds.16 mph48%30.24 "HgN/A
Weather by CustomWeather, © 2016

See weather overviewHow to use our weather pages